www.pogodaiklimat.ru

Погода и климат >> Архив погоды >> Россия >> Красноярский край >> Ирбейское


ПОГОДА в Ирбейском

  • Прогноз погоды в Ирбейском
  • Монитор погоды в Ирбейском

АРХИВ ПОГОДЫ в Ирбейском

Время (UTC), дата Ветер
(напр.,м/с)
 
Видим.   Явления Облачность Т
(С)
Тd
(С)
f
(%)
Тe
(С)
Тes
(С)
Комфортность P
(гПа)
Po
(гПа)
Тmin
(С)
Tmax
(С)
R
(мм)
R24
(мм)
S
(см)
06 12.02 ЮЗ 1 2000 м дымка 4/0
[Ci sp]
-25.3 -32.3 52 -29 -26 1037.0 1001.8
09 12.02 З 1 4000 м дымка 8/0
[Ci sp]
-19.6 -27.6 49 -23 -22 1035.3 1000.8
12 12.02 штиль 0 н/о дымка 6/0
[Ci sp]
-28.3 -32.5 67 -28 -28 1036.9 1001.3 -19.3 0.0
15 12.02 штиль 0 н/о дымка ясно -33.1 -36.8 69 -33 -33 опасность
обморожения
1038.4 1002.0
18 12.02 штиль 0 н/о дымка 4/0
[Ci fib]
-32.8 -36.8 67 -33 -33 опасность
обморожения
1039.4 1002.9
21 12.02 штиль 0 н/о дымка 8/0
[Ci fib]
-31.2 -35.1 68 -31 -31 опасность
обморожения
1039.4 1003.2
00 13.02 штиль 0 н/о дымка 9/4 1000 м
[Sc Ac trans Ci sp]
-27.1 -30.8 71 -27 -27 1039.2 1003.6 -34.1 12
03 13.02 штиль 0 2000 м дымка {ливн. осадки} 9/6 600 м
[Cb cap Ac lent Ci sp]
-22.8 -27.3 67 -23 -22 1039.2 1004.2
06 13.02 Ю 1 2000 м дымка {ливн. осадки} 8/6 1000 м
[Sc Ac lent Ci sp]
-14.8 -22.8 50 -17 -16 1037.8 1003.9
09 13.02 штиль 0 4000 м дымка 9/4 1000 м
[Sc Ac trans Ci fib]
-10.8 -19.9 47 -11 -11 1036.6 1003.3
12 13.02 штиль 0 н/о дымка 8/4 1000 м
[Sc Ac trans Ci fib]
-19.7 -23.5 72 -20 -20 1038.2 1003.7 -10.4 0.0
15 13.02 штиль 0 н/о дымка 9/8 1000 м
[Sc Ac lent Ci sp]
-18.0 -21.8 72 -18 -18 1037.9 1003.6
18 13.02 штиль 0 н/о дымка 8/4 1000 м
[Sc Ac lent Ci sp]
-19.5 -22.6 76 -20 -20 1038.0 1003.5
21 13.02 штиль 0 н/о дымка 9/8 1000 м
[Sc Ac lent Ci sp]
-18.1 -21.2 77 -18 -18 1037.7 1003.4
00 14.02 штиль 0 н/о дымка 9/8 1000 м
[Sc Ac lent Ci sp]
-18.8 -21.6 78 -19 -19 1037.9 1003.5 -21.3 12
03 14.02 штиль 0 2000 м дымка 9/8 1000 м
[Sc Ac lent Ci sp]
-15.3 -19.1 73 -15 -15 1038.2 1004.2
06 14.02 СВ 1 4000 м дымка 9/6 1000 м
[Sc Ac lent Ci sp]
-8.5 -15.1 59 -11 -10 1036.4 1003.4
09 14.02 С 1 20 км 8/4 1000 м
[Sc Ac lent Ci sp]
-6.5 -14.0 55 -8 -8 1035.6 1002.8
12 14.02 штиль 0 н/о 8/4 600 м
[Cb cap Ac lent Ci sp]
-11.6 -15.4 73 -12 -12 1036.4 1003.0 -6.2
15 14.02 штиль 0 н/о 6/3 1000 м
[Sc Ac lent Ci sp]
-15.3 -17.8 81 -15 -15 1036.8 1002.9
18 14.02 штиль 0 н/о 8/8 600 м
[Cb cap Ac lent]
-13.6 -16.7 77 -14 -14 1036.4 1002.7
21 14.02 штиль 0 н/о {ливн. осадки} 4/3 1000 м
[Sc Ac lent Ci sp]
-21.0 -23.6 80 -21 -21 1037.4 1002.7
00 15.02 штиль 0 н/о {ливн. осадки} 6/3 1000 м
[Sc Ac lent Ci sp]
-22.1 -25.0 77 -22 -22 1037.1 1002.3 -22.8 0.0 12
03 15.02 ЮЗ 1 2000 м дымка 4/0
[Ci sp]
-18.1 -21.9 72 -21 -19 1036.7 1002.4 -23.9
06 15.02 З 1 4000 м дымка 3/0 1000 м
[Ci sp]
-8.8 -14.4 64 -11 -7 1034.1 1001.1
09 15.02 штиль 0 20 км 3/0
[Ci sp]
-3.1 -12.4 49 -4 -3 1032.7 1000.4
12 15.02 штиль 0 н/о ясно -14.9 -18.3 75 -15 -15 1033.7 999.9 -0.9
15 15.02 штиль 0 н/о 8/4 1000 м
[Sc Ac trans]
-16.3 -18.9 80 -16 -16 1032.9 999.0
18 15.02 штиль 0 н/о 8/6 1000 м
[Sc Ac trans]
-11.9 -15.0 78 -12 -12 1031.3 998.0
21 15.02 штиль 0 н/о ясно -17.8 -20.1 82 -18 -18 1031.4 997.3
00 16.02 штиль 0 н/о ясно -21.8 -24.5 79 -22 -22 1030.7 996.1 -22.0 -22.0 12
03 16.02 ЮЗ 1 2000 м дымка 3/0
[Ci fib]
-17.5 -20.5 77 -20 -19 1029.5 995.5 -22.9
06 16.02 ЮЗ 2 4000 м дымка 6/3 1000 м
[Sc Ac trans Ci fib]
-7.9 -14.0 62 -12 -10 1025.6 993.0
09 16.02 штиль 0 20 км 8/3 1000 м
[Sc Ac trans Ci fib]
-3.0 -12.3 49 -3 -3 1023.8 991.8
12 16.02 штиль 0 н/о 9/4 1000 м
[Sc Ac lent Ci sp]
-13.5 -17.1 74 -14 -14 1024.7 991.4 -1.7
15 16.02 штиль 0 н/о 9/3 1000 м
[Sc Ac lent Cs]
-17.2 -20.1 78 -17 -17 1023.5 989.8
18 16.02 штиль 0 н/о 8/4 1000 м
[Sc Ac lent Ci sp]
-17.2 -20.0 79 -17 -17 1022.4 988.8
21 16.02 штиль 0 н/о 6/3 1000 м
[Sc Ac lent Ci sp]
-16.9 -19.5 80 -17 -17 1021.7 988.1
00 17.02 В 1 н/о 4/3 1000 м
[Sc Ac lent Ci sp]
-19.9 -22.3 81 -23 -23 1021.9 987.9 -20.3 12
03 17.02 СВ 1 2000 м дымка 8/3 1000 м
[Sc Ac lent Ci sp]
-14.7 -19.0 70 -17 -16 1021.4 988.0 -20.9
06 17.02 З 3 20 км 8/0
[Ci sp]
+0.3 -11.4 41 -3 -1 1017.9 986.5
09 17.02 З 2 20 км 9/3
[Sc Ac lent Ci sp]
+0.5 -10.0 45 -2 -2 1016.3 985.0
12 17.02 штиль 0 н/о 8/3 1000 м
[Sc Ac lent Ci sp]
-8.9 -13.0 72 -9 -9 1016.4 984.0 +0.9
15 17.02 штиль 0 н/о ясно -15.9 -18.5 80 -16 -16 1016.3 983.0
18 17.02 штиль 0 н/о 9/0
[Ac lent Cs]
-17.2 -19.8 80 -17 -17 1015.3 981.9
21 17.02 штиль 0 н/о 3/0
[Ci sp]
-19.5 -21.9 81 -20 -20 1014.5 980.8
00 18.02 штиль 0 н/о 3/0
[Ci sp]
-21.6 -24.3 79 -22 -22 1014.3 980.3 -21.6 12
03 18.02 ЮЗ 1 4000 м дымка 4/0
[Ci sp]
-16.4 -19.7 76 -19 -17 1014.1 980.8 -22.2
06 18.02 штиль 0 4000 м дымка 4/0
[Ci sp]
-2.0 -12.4 45 -2 +2 1010.2 978.8
09 18.02 штиль 0 4000 м дымка 6/0
[Ac lent Ci sp]
+1.2 -11.4 38 +1 +2 1008.7 977.7
12 18.02 штиль 0 н/о 8/4 600 м
[Cb cap Ac lent Ci sp]
-10.1 -14.5 70 -10 -10 1010.7 978.3 +2.2
15 18.02 штиль 0 н/о 9/8 600 м
[Cb cap Ac lent]
-8.9 -12.4 76 -9 -9 1010.6 978.3
18 18.02 штиль 0 н/о 9/9 600 м
[Cb cap]
-8.0 -11.7 75 -9 -9 1010.6 978.5
21 18.02 С 1 н/о 9/9 600 м
[Cb cap]
-7.5 -11.2 75 -10 -10 1011.8 979.7
00 19.02 штиль 0 н/о 10/10 600 м
[Cb cap]
-6.3 -9.7 77 -7 -7 1013.0 981.0 -10.8 12

 

Местоположение метеостанции Ирбейское (Красноярский край, Россия): широта 55.63 долгота 95.47 высота над уровнем моря 252 м.

В архиве по умолчанию представлена погода в Ирбейском за последнюю неделю. Архивные данные за месяц целиком и за предыдущие месяцы, начиная с января 2011 года, Вы можете получить, выбрав интересующий диапазон дат из раскрывающегося списка и нажав кнопку "Ввод!".


*Определитесь, кто Вы:
робот инопланетянин человек

Внимание! Время в таблицах - всемирное. Для получения местного времени необходимо прибавить поправку, которая равна 7 ч.

Смотрите также архив погоды в соседних городах и на ближайших метеорологических станциях:

Погода в Агинском (Красноярский край, Россия) (56 км)
Погода в Солянке (Красноярский край, Россия) (61 км)
Погода в Канске (Красноярский край, Россия) (64 км)
Погода в Уяре (Красноярский край, Россия) (74 км)
Погода в Шалинском (Красноярский край, Россия) (108 км)
Погода в Абане (Красноярский край, Россия) (124 км)
Погода в Дзержинском (Красноярский край, Россия) (137 км)
Погода в Железногорске (Красноярский край, Россия) (140 км)
Погода в Анастасино (Красноярский край, Россия) (144 км)
Погода в Тайшете (Иркутская область, Россия) (162 км)

Пояснения к столбцам:

Ветер - указаны скорость ветра в м/с - средняя за 10 мин, порывы в срок и между сроками (в фигурных скобках) и направление, откуда дует ветер: С - северный, СВ - северо-восточный, В - восточный, ЮВ - юго-восточный, Ю - южный, ЮЗ - юго-западный, З - западный, СЗ - северо-западный.
Видимость - горизонтальная дальность видимости в метрах или километрах. При видимости от 1 до 10 км при отсутствии осадков обычно наблюдается дымка, при ухудшении видимости до 1 км и менее - туман. В сухую погоду видимость может ухудшаться дымом, пылью или мглою.
Явления - указаны атмосферные явления, наблюдавшиеся в срок или в последний час перед сроком; фигурными скобками обозначены явления, наблюдавшиеся между сроками (за 1-3 часа до срока); квадратными скобками обозначены град или гололедные отложения с указанием их диаметра в мм.
Облачность - указаны через наклонную черту общая и нижняя облачность в баллах и высота нижней границы облаков в метрах; квадратными скобками обозначены формы облаков: Ci - перистые, Cs - перисто-слоистые, Cc - перисто-кучевые, Ac - высококучевые, As - высокослоистые, Sc - слоисто-кучевые, Ns - слоисто-дождевые, Cu - кучевые, Cb - кучево-дождевые. Подробнее классификацию облаков см. в Атласе облаков (PDF).
T - Температура воздуха - температура, измеренная на высоте 2 м над землей.
Td - Температура точки росы - температура, при понижении до которой содержащийся в воздухе водяной пар достигнет насыщения.
f - Относительная влажность воздуха - влажноcть воздуха, измеренная на высоте 2 м над землей.
Te - Эффективная температура - температура, которую ощущает одетый по сезону человек в тени. Характеристика душности погоды. При расчете учитывается влияние влажности воздуха и скорости ветра на теплоощущения человека.
Tes - Эффективная температура на солнце - температура, которую ощущает человек, с поправкой на солнечный нагрев. Характеристика знойности погоды. Зависит от высоты солнца над горизонтом, облачности и скорости ветра. Ночью, в пасмурную погоду, а также при ветре 12 м/с и более поправка равна нулю.
P - Атмосферное давление - приведенное к уровню моря атмосферное давление.
Po - Атмосферное давление - измеренное на уровне метеостанции атмосферное давление.
Tmin - Минимальная температура - минимум температуры воздуха на высоте 2 м над землей.
Tmax - Максимальная температура - максимум температуры воздуха на высоте 2 м над землей.
R - Количество осадков - Количество выпавших осадков за период времени, мм. При наведении курсора мыши на число - период времени, за который выпало указанное количество осадков.
R24 - Количество осадков - Количество выпавших осадков за 24 часа, мм.
S - Снежный покров - Высота снежного покрова, см. При наведении курсора мыши на число - состояние снежного покрова и степень покрытия местности в баллах.